[[{"header":{"parameterUnit":"m.s-1","parameterCategory":1,"la1":30.2992,"la2":30.254,"lo1":-89.0895,"lo2":-89.0443,"dy":0.0025,"dx":0.0025,"nx":19,"ny":19,"refTime":"2026-04-05T21:00:00:Z","depth":0,"parameterNumber":2,"parameterNumberName":"U-component_of_WINDS"},"data":[0,0,0,-2.2676,-2.2676,-2.2695,-2.2695,-2.2732,-2.2733,0,0,0,0,0,0,0,0,0,0,0,-2.2677,-2.2677,-2.2676,-2.2676,-2.2695,-2.2695,-2.2732,-2.2733,0,0,0,0,0,0,0,0,0,0,0,-2.2677,-2.2677,-2.2678,-2.2676,-2.2695,-2.2695,-2.2732,-2.2713,0,0,0,0,0,0,0,0,0,0,-2.2692,-2.2701,-2.2677,-2.2678,-2.2676,-2.2695,-2.2695,-2.2712,-2.2714,-2.2729,0,-2.2743,0,-2.2738,-2.2736,-2.2736,0,0,0,-2.2671,-2.2699,-2.2698,-2.2678,-2.2677,-2.2695,-2.2685,-2.2713,-2.2716,-2.2732,-2.2743,-2.2744,-2.2739,-2.2736,-2.2736,-2.2835,-2.2836,0,0,-2.267,-2.2684,-2.2696,-2.27,-2.2697,-2.2685,-2.2686,-2.2715,-2.2728,-2.2743,-2.2745,-2.274,-2.2737,-2.2737,-2.2834,-2.2835,0,0,0,-2.267,-2.2684,-2.2682,-2.2698,-2.2701,-2.2685,-2.2687,-2.2727,-2.2725,-2.2745,-2.274,-2.2737,-2.2737,-2.2833,-2.2835,-2.2884,0,0,0,-2.2669,-2.2684,-2.2681,-2.2691,-2.2701,-2.2714,-2.2699,-2.2723,-2.2726,-2.274,-2.2737,-2.2738,-2.2833,-2.2834,-2.2881,-2.2905,0,0,0,-2.2673,-2.2684,-2.269,-2.2691,-2.27,-2.2713,-2.2713,-2.2723,-2.2723,-2.2736,-2.2738,-2.2832,-2.2834,-2.2878,-2.2901,-2.2936,0,0,0,-2.2682,-2.2734,-2.2691,-2.2746,-2.27,-2.2744,-2.2713,-2.2744,-2.2761,-2.2737,-2.2833,-2.2834,-2.2877,-2.2898,-2.2933,-2.2969,-2.2985,0,0,-2.2755,-2.2743,-2.2774,-2.2737,-2.2792,-2.2739,-2.2801,-2.2803,-2.2791,-2.2821,-2.2823,-2.2882,-2.2901,-2.2935,-2.3068,-2.3081,0,0,0,-2.2803,-2.2826,-2.2837,-2.2854,-2.2856,-2.286,-2.2851,-2.2851,-2.2876,-2.281,-2.2903,-2.2914,-2.2934,-2.295,-2.2961,-2.2978,-2.2842,-2.2842,-2.2842,-2.2929,-2.291,-2.2961,-2.2945,-2.2961,-2.295,-2.2962,-2.2961,-2.2938,-2.296,-2.2969,-2.3052,-2.3072,-2.308,-2.3097,-2.2986,-2.2986,-2.2986,-2.2986,-2.3036,-2.3066,-2.3032,-2.307,-2.305,-2.3081,-2.3073,-2.3055,-2.3082,-2.3043,-2.306,-2.3021,-2.3094,-2.3109,-2.299,-2.2989,-2.2989,-2.2988,-2.2988,-2.3117,-2.3128,-2.3127,-2.3149,-2.3168,-2.3149,-2.3176,-2.3156,-2.3138,-2.3155,-2.3162,-2.3162,-2.3159,-2.3159,-2.316,-2.316,-2.316,-2.316,-2.3161,-2.3203,-2.32,-2.3225,-2.3231,-2.3239,-2.3247,-2.3236,-2.3243,-2.3246,-2.323,-2.323,-2.3205,-2.3105,-2.308,-2.3165,-2.3164,-2.3164,-2.3163,-2.3163,-2.3321,-2.329,-2.3329,-2.3337,-2.3342,-2.3362,-2.3336,-2.3353,-2.3356,-2.337,-2.334,-2.3269,-2.3255,-2.3246,-2.3226,-2.3344,-2.3344,-2.3344,-2.3344,-2.339,-2.3381,-2.3416,-2.3429,-2.344,-2.3421,-2.3465,-2.3457,-2.3444,-2.3445,-2.3424,-2.3396,-2.3387,-2.3378,-2.3367,-2.3348,-2.3493,-2.3494,-2.3494,-2.3462,-2.3452,-2.3494,-2.348,-2.3482,-2.3485,-2.3526,-2.3544,-2.3523,-2.3499,-2.3445,-2.3439,-2.3392,-2.3377,-2.3355,-2.3337,-2.3302,0,0]},{"header":{"parameterUnit":"m.s-1","parameterCategory":1,"la1":30.2992,"la2":30.254,"lo1":-89.0895,"lo2":-89.0443,"dy":0.0025,"dx":0.0025,"nx":19,"ny":19,"refTime":"2026-04-05T21:00:00:Z","depth":0,"parameterNumber":3,"parameterNumberName":"V-component_of_WINDS"},"data":[0,0,0,-5.0068,-5.007,-5.0116,-5.0116,-5.0182,-5.0182,0,0,0,0,0,0,0,0,0,0,0,-5.006,-5.0061,-5.0068,-5.007,-5.0116,-5.0116,-5.0181,-5.0182,0,0,0,0,0,0,0,0,0,0,0,-5.006,-5.0061,-5.0062,-5.007,-5.0116,-5.0116,-5.0181,-5.0144,0,0,0,0,0,0,0,0,0,0,-5.0098,-5.0096,-5.0061,-5.0062,-5.007,-5.0116,-5.0116,-5.0142,-5.0146,-5.0164,0,-5.0183,0,-5.0184,-5.0187,-5.0187,0,0,0,-5.0065,-5.0093,-5.01,-5.0062,-5.0071,-5.0116,-5.0094,-5.0144,-5.0149,-5.017,-5.0184,-5.0186,-5.0185,-5.0188,-5.0188,-5.0313,-5.0313,0,0,-5.0062,-5.0071,-5.0097,-5.0104,-5.0099,-5.0092,-5.0095,-5.0147,-5.0162,-5.0184,-5.0188,-5.0186,-5.0188,-5.0189,-5.0312,-5.0313,0,0,0,-5.0058,-5.007,-5.0076,-5.0101,-5.0109,-5.0094,-5.0097,-5.016,-5.0161,-5.0188,-5.0187,-5.0189,-5.019,-5.0311,-5.0312,-5.0362,0,0,0,-5.0056,-5.0067,-5.0075,-5.0081,-5.0108,-5.0135,-5.0109,-5.0158,-5.0163,-5.0187,-5.0189,-5.019,-5.031,-5.0312,-5.0358,-5.0383,0,0,0,-5.0055,-5.0067,-5.0076,-5.0081,-5.0102,-5.0134,-5.0138,-5.0159,-5.0163,-5.0188,-5.019,-5.0309,-5.0311,-5.0355,-5.0378,-5.0419,0,0,0,-5.0056,-5.0118,-5.0077,-5.0145,-5.0101,-5.0165,-5.0138,-5.0185,-5.0212,-5.0189,-5.031,-5.0312,-5.0354,-5.0375,-5.0416,-5.0455,-5.0472,0,0,-5.0139,-5.0128,-5.0168,-5.0132,-5.0206,-5.0157,-5.0238,-5.0253,-5.0246,-5.029,-5.0293,-5.0359,-5.0378,-5.0418,-5.0565,-5.0579,0,0,0,-5.0197,-5.0225,-5.0243,-5.027,-5.0285,-5.0299,-5.0302,-5.0308,-5.0345,-5.0271,-5.0385,-5.0395,-5.0419,-5.0437,-5.0449,-5.0468,-5.0321,-5.0321,-5.0321,-5.0326,-5.0316,-5.038,-5.0376,-5.0403,-5.0406,-5.0426,-5.0434,-5.0414,-5.0441,-5.0454,-5.0545,-5.0567,-5.0575,-5.0596,-5.0474,-5.0474,-5.0474,-5.0474,-5.0446,-5.0485,-5.0459,-5.0513,-5.0501,-5.0545,-5.055,-5.0535,-5.0574,-5.0534,-5.0554,-5.0512,-5.0591,-5.0608,-5.0478,-5.0477,-5.0477,-5.0477,-5.0476,-5.0529,-5.0546,-5.0554,-5.0593,-5.0624,-5.0617,-5.0656,-5.0643,-5.0631,-5.0651,-5.0664,-5.0663,-5.066,-5.0658,-5.0658,-5.0659,-5.0659,-5.0659,-5.0659,-5.0613,-5.062,-5.0655,-5.0677,-5.0694,-5.0713,-5.0717,-5.0733,-5.0746,-5.0734,-5.0734,-5.0711,-5.0601,-5.0573,-5.0664,-5.0663,-5.0663,-5.0662,-5.0662,-5.0739,-5.0709,-5.0764,-5.078,-5.0805,-5.0837,-5.0821,-5.0853,-5.0864,-5.0883,-5.0857,-5.0778,-5.0765,-5.0756,-5.0733,-5.0859,-5.0859,-5.0859,-5.0859,-5.0809,-5.0802,-5.0856,-5.0884,-5.0909,-5.09,-5.0962,-5.0965,-5.0964,-5.097,-5.095,-5.0918,-5.0909,-5.0902,-5.0889,-5.0868,-5.1026,-5.1026,-5.1026,-5.0886,-5.0881,-5.0936,-5.0937,-5.0955,-5.0971,-5.1028,-5.106,-5.1052,-5.1033,-5.0974,-5.0967,-5.0916,-5.09,-5.088,-5.086,-5.0821,0,0]}]]